Time,TemperatureF,DewpointF,PressureIn,WindDirection,WindDirectionDegrees,WindSpeedMPH,WindSpeedGustMPH,Humidity,HourlyPrecipIn,Conditions,Clouds,dailyrainin,SoftwareType,DateUTC
2013-04-17 00:02:00,54.8,51.6,30.07,SW,224,4.0,14.0,89,0.00,,FEW046,0.00,VWS V14.00,2013-04-17 04:02:00,
2013-04-17 00:07:00,55.0,51.8,30.07,South,184,6.0,9.0,89,0.00,,FEW046,0.00,VWS V14.00,2013-04-17 04:07:00,
2013-04-17 00:12:00,55.0,51.8,30.07,SW,226,7.0,9.0,89,0.00,,FEW046,0.00,VWS V14.00,2013-04-17 04:12:00,
2013-04-17 00:17:00,55.1,51.9,30.07,West,270,4.0,10.0,89,0.00,,FEW046,0.00,VWS V14.00,2013-04-17 04:17:00,
2013-04-17 00:22:00,55.1,51.6,30.07,SW,231,5.0,10.0,88,0.00,,FEW046,0.00,VWS V14.00,2013-04-17 04:22:00,
2013-04-17 00:27:00,55.1,51.6,30.07,West,266,0.0,10.0,88,0.00,,FEW046,0.00,VWS V14.00,2013-04-17 04:27:00,
2013-04-17 00:32:00,55.1,51.6,30.07,SSW,195,2.0,5.0,88,0.00,,FEW046,0.00,VWS V14.00,2013-04-17 04:32:00,
2013-04-17 00:37:00,55.1,51.6,30.07,WSW,243,5.0,8.0,88,0.00,,FEW046,0.00,VWS V14.00,2013-04-17 04:37:00,
2013-04-17 00:42:00,55.1,51.6,30.08,SSW,212,1.0,8.0,88,0.00,,FEW046,0.00,VWS V14.00,2013-04-17 04:42:00,
2013-04-17 00:47:00,55.1,51.6,30.07,SSW,211,6.0,9.0,88,0.00,,FEW046,0.00,VWS V14.00,2013-04-17 04:47:00,
2013-04-17 00:52:00,55.3,51.8,30.07,SW,224,3.0,9.0,88,0.00,,FEW046,0.00,VWS V14.00,2013-04-17 04:52:00,
2013-04-17 00:57:00,55.3,51.8,30.07,WSW,247,4.0,10.0,88,0.00,,FEW046,0.00,VWS V14.00,2013-04-17 04:57:00,
2013-04-17 01:02:00,55.3,51.8,30.08,West,260,3.0,6.0,88,0.00,,BKN060,0.00,VWS V14.00,2013-04-17 05:02:00,
2013-04-17 01:07:00,55.3,52.1,30.09,SSE,162,4.0,7.0,89,0.00,,BKN060,0.00,VWS V14.00,2013-04-17 05:07:00,
2013-04-17 01:12:00,55.3,52.1,30.09,WSW,246,2.0,8.0,89,0.00,,BKN060,0.00,VWS V14.00,2013-04-17 05:12:00,
2013-04-17 01:17:00,55.3,52.1,30.08,SW,233,4.0,8.0,89,0.00,,BKN060,0.00,VWS V14.00,2013-04-17 05:17:00,
2013-04-17 01:22:00,55.3,52.1,30.08,SW,229,2.0,8.0,89,0.00,,BKN060,0.00,VWS V14.00,2013-04-17 05:22:00,
2013-04-17 01:27:00,55.3,52.1,30.08,SSW,194,2.0,8.0,89,0.00,,BKN060,0.00,VWS V14.00,2013-04-17 05:27:00,
2013-04-17 01:32:00,55.1,51.9,30.08,WNW,288,1.0,5.0,89,0.00,,BKN060,0.00,VWS V14.00,2013-04-17 05:32:00,
2013-04-17 01:37:00,55.0,52.1,30.08,WSW,257,2.0,5.0,90,0.00,,BKN060,0.00,VWS V14.00,2013-04-17 05:37:00,
2013-04-17 01:42:00,54.8,52.2,30.08,South,188,3.0,5.0,91,0.00,,BKN060,0.00,VWS V14.00,2013-04-17 05:42:00,
2013-04-17 01:47:00,54.7,52.4,30.08,SSW,212,4.0,9.0,92,0.00,,BKN060,0.00,VWS V14.00,2013-04-17 05:47:00,
2013-04-17 01:52:00,54.5,52.2,30.08,SSW,212,2.0,9.0,92,0.00,,BKN060,0.00,VWS V14.00,2013-04-17 05:52:00,
2013-04-17 01:57:00,54.5,52.5,30.08,SW,214,3.0,9.0,93,0.00,,BKN060,0.00,VWS V14.00,2013-04-17 05:57:00,
2013-04-17 02:02:00,54.4,52.7,30.08,SW,214,2.0,4.0,94,0.00,,OVC060,0.00,VWS V14.00,2013-04-17 06:02:00,
2013-04-17 02:07:00,54.2,52.8,30.08,SW,214,1.0,4.0,95,0.00,,OVC060,0.00,VWS V14.00,2013-04-17 06:07:00,
2013-04-17 02:12:00,54.1,52.7,30.08,WNW,286,1.0,5.0,95,0.00,,OVC060,0.00,VWS V14.00,2013-04-17 06:12:00,
2013-04-17 02:17:00,54.1,53.0,30.08,NNW,345,1.0,5.0,96,0.00,,OVC060,0.00,VWS V14.00,2013-04-17 06:17:00,
2013-04-17 02:22:00,54.1,53.3,30.09,NNW,340,2.0,5.0,97,0.00,,OVC060,0.00,VWS V14.00,2013-04-17 06:22:00,
2013-04-17 02:27:00,54.1,53.3,30.09,SW,219,4.0,7.0,97,0.00,,OVC060,0.00,VWS V14.00,2013-04-17 06:27:00,
2013-04-17 02:32:00,54.1,53.3,30.09,WSW,242,2.0,6.0,97,0.00,,OVC060,0.00,VWS V14.00,2013-04-17 06:32:00,
2013-04-17 02:37:00,54.1,53.5,30.08,SSW,206,2.0,6.0,98,0.00,,OVC060,0.00,VWS V14.00,2013-04-17 06:37:00,
2013-04-17 02:42:00,54.2,53.7,30.09,NNW,347,3.0,6.0,98,0.00,,OVC060,0.00,VWS V14.00,2013-04-17 06:42:00,
2013-04-17 02:47:00,54.4,53.8,30.09,NNW,344,2.0,6.0,98,0.00,,OVC060,0.00,VWS V14.00,2013-04-17 06:47:00,
2013-04-17 02:52:00,54.4,53.8,30.09,NNW,342,0.0,10.0,98,0.00,,OVC060,0.00,VWS V14.00,2013-04-17 06:52:00,
2013-04-17 02:57:00,54.4,54.1,30.09,NNW,332,0.0,10.0,99,0.00,,OVC060,0.00,VWS V14.00,2013-04-17 06:57:00,
2013-04-17 03:02:00,54.4,53.8,30.09,NNW,331,3.0,3.0,98,0.00,,BKN029,0.00,VWS V14.00,2013-04-17 07:02:00,
2013-04-17 03:07:00,54.2,53.9,30.08,SSW,204,1.0,4.0,99,0.00,,BKN029,0.00,VWS V14.00,2013-04-17 07:07:00,
2013-04-17 03:12:00,54.2,53.9,30.08,SSW,204,2.0,4.0,99,0.00,,BKN029,0.00,VWS V14.00,2013-04-17 07:12:00,
2013-04-17 03:17:00,54.2,53.9,30.08,WSW,240,2.0,5.0,99,0.00,,BKN029,0.00,VWS V14.00,2013-04-17 07:17:00,
2013-04-17 03:22:00,54.2,53.9,30.08,West,262,2.0,5.0,99,0.00,,BKN029,0.00,VWS V14.00,2013-04-17 07:22:00,
2013-04-17 03:27:00,54.2,53.7,30.09,NW,311,2.0,5.0,98,0.00,,BKN029,0.00,VWS V14.00,2013-04-17 07:27:00,
2013-04-17 03:32:00,54.2,53.7,30.09,NW,319,0.0,4.0,98,0.00,,BKN029,0.00,VWS V14.00,2013-04-17 07:32:00,
2013-04-17 03:37:00,54.2,53.4,30.09,NNW,341,1.0,7.0,97,0.00,,BKN029,0.00,VWS V14.00,2013-04-17 07:37:00,
2013-04-17 03:42:00,54.4,53.3,30.09,NNW,344,1.0,7.0,96,0.00,,BKN029,0.00,VWS V14.00,2013-04-17 07:42:00,
2013-04-17 03:47:00,54.4,52.7,30.08,North,351,3.0,7.0,94,0.00,,BKN029,0.00,VWS V14.00,2013-04-17 07:47:00,
2013-04-17 03:52:00,54.4,52.4,30.09,NNW,338,3.0,9.0,93,0.00,,BKN029,0.00,VWS V14.00,2013-04-17 07:52:00,
2013-04-17 03:57:00,54.4,52.1,30.09,SSW,208,1.0,9.0,92,0.00,,BKN029,0.00,VWS V14.00,2013-04-17 07:57:00,
2013-04-17 04:02:00,54.4,51.5,30.09,NW,311,2.0,5.0,90,0.00,,OVC095,0.00,VWS V14.00,2013-04-17 08:02:00,
2013-04-17 04:07:00,54.2,50.7,30.09,NW,309,2.0,7.0,88,0.00,,OVC095,0.00,VWS V14.00,2013-04-17 08:07:00,
2013-04-17 04:12:00,54.1,50.3,30.09,NW,309,3.0,7.0,87,0.00,,OVC095,0.00,VWS V14.00,2013-04-17 08:12:00,
2013-04-17 04:17:00,54.1,50.0,30.10,WNW,303,1.0,7.0,86,0.00,,OVC095,0.00,VWS V14.00,2013-04-17 08:17:00,
2013-04-17 04:22:00,54.0,49.3,30.10,NNW,330,1.0,7.0,84,0.00,,OVC095,0.00,VWS V14.00,2013-04-17 08:22:00,
2013-04-17 04:27:00,54.0,49.6,30.10,NNW,330,0.0,7.0,85,0.00,,OVC095,0.00,VWS V14.00,2013-04-17 08:27:00,
2013-04-17 04:32:00,53.8,49.1,30.10,NNW,341,7.0,7.0,84,0.00,,OVC095,0.00,VWS V14.00,2013-04-17 08:32:00,
2013-04-17 04:37:00,53.7,48.3,30.11,NNE,24,2.0,14.0,82,0.00,,OVC095,0.00,VWS V14.00,2013-04-17 08:37:00,
2013-04-17 04:42:00,53.5,47.8,30.10,NNW,331,4.0,14.0,81,0.00,,OVC095,0.00,VWS V14.00,2013-04-17 08:42:00,
2013-04-17 04:47:00,53.4,46.7,30.11,NW,311,2.0,14.0,78,0.00,,OVC095,0.00,VWS V14.00,2013-04-17 08:47:00,
2013-04-17 04:52:00,53.2,45.5,30.11,NW,321,4.0,14.0,75,0.00,,OVC095,0.00,VWS V14.00,2013-04-17 08:52:00,
2013-04-17 04:57:00,53.1,45.4,30.11,WNW,287,1.0,14.0,75,0.00,,OVC095,0.00,VWS V14.00,2013-04-17 08:57:00,
2013-04-17 05:02:00,52.9,45.2,30.11,WNW,287,1.0,4.0,75,0.00,,OVC049,0.00,VWS V14.00,2013-04-17 09:02:00,
2013-04-17 05:07:00,52.6,44.9,30.11,NE,53,1.0,5.0,75,0.00,,OVC049,0.00,VWS V14.00,2013-04-17 09:07:00,
2013-04-17 05:12:00,52.5,44.8,30.11,North,358,1.0,6.0,75,0.00,,OVC049,0.00,VWS V14.00,2013-04-17 09:12:00,
2013-04-17 05:17:00,52.2,44.5,30.11,North,358,0.0,6.0,75,0.00,,OVC049,0.00,VWS V14.00,2013-04-17 09:17:00,
2013-04-17 05:22:00,52.1,44.8,30.11,North,358,1.0,6.0,76,0.00,,OVC049,0.00,VWS V14.00,2013-04-17 09:22:00,
2013-04-17 05:27:00,51.9,44.6,30.11,North,358,2.0,6.0,76,0.00,,OVC049,0.00,VWS V14.00,2013-04-17 09:27:00,
2013-04-17 05:32:00,51.8,44.5,30.11,North,358,3.0,6.0,76,0.00,,OVC049,0.00,VWS V14.00,2013-04-17 09:32:00,
2013-04-17 05:37:00,51.8,44.5,30.12,North,358,1.0,6.0,76,0.00,,OVC049,0.00,VWS V14.00,2013-04-17 09:37:00,
2013-04-17 05:42:00,51.6,44.6,30.11,North,358,2.0,6.0,77,0.00,,OVC049,0.00,VWS V14.00,2013-04-17 09:42:00,
2013-04-17 05:47:00,51.5,44.9,30.12,North,352,1.0,7.0,78,0.00,,OVC049,0.00,VWS V14.00,2013-04-17 09:47:00,
2013-04-17 05:52:00,51.3,44.7,30.12,NNW,328,1.0,8.0,78,0.00,,OVC049,0.00,VWS V14.00,2013-04-17 09:52:00,
2013-04-17 05:57:00,51.2,44.6,30.12,NW,306,1.0,9.0,78,0.00,,OVC049,0.00,VWS V14.00,2013-04-17 09:57:00,
2013-04-17 06:02:00,51.2,44.6,30.12,NNW,327,4.0,6.0,78,0.00,,OVC055,0.00,VWS V14.00,2013-04-17 10:02:00,
2013-04-17 06:07:00,51.0,44.4,30.12,NNW,330,1.0,6.0,78,0.00,,OVC055,0.00,VWS V14.00,2013-04-17 10:07:00,
2013-04-17 06:12:00,50.9,44.6,30.12,NNW,330,2.0,6.0,79,0.00,,OVC055,0.00,VWS V14.00,2013-04-17 10:12:00,
2013-04-17 06:17:00,50.7,44.4,30.12,NNW,348,3.0,6.0,79,0.00,,OVC055,0.00,VWS V14.00,2013-04-17 10:17:00,
2013-04-17 06:22:00,50.7,44.8,30.12,NNW,348,3.0,6.0,80,0.00,,OVC055,0.00,VWS V14.00,2013-04-17 10:22:00,
2013-04-17 06:27:00,50.4,44.5,30.13,NNW,348,1.0,6.0,80,0.00,,OVC055,0.00,VWS V14.00,2013-04-17 10:27:00,
2013-04-17 06:32:00,50.3,44.4,30.13,NNW,348,3.0,4.0,80,0.00,,OVC055,0.00,VWS V14.00,2013-04-17 10:32:00,
2013-04-17 06:37:00,50.1,44.2,30.13,NNW,348,2.0,4.0,80,0.00,,OVC055,0.00,VWS V14.00,2013-04-17 10:37:00,
2013-04-17 06:42:00,50.0,44.1,30.13,NW,320,3.0,5.0,80,0.00,,OVC055,0.00,VWS V14.00,2013-04-17 10:42:00,
2013-04-17 06:47:00,50.0,44.1,30.13,North,0,2.0,8.0,80,0.00,,OVC055,0.00,VWS V14.00,2013-04-17 10:47:00,
2013-04-17 06:52:00,50.0,44.1,30.13,North,0,5.0,8.0,80,0.00,,OVC055,0.00,VWS V14.00,2013-04-17 10:52:00,
2013-04-17 06:57:00,49.8,43.6,30.14,North,351,2.0,9.0,79,0.00,,OVC055,0.00,VWS V14.00,2013-04-17 10:57:00,
2013-04-17 07:02:00,50.0,43.1,30.14,NNW,348,1.0,9.0,77,0.00,,OVC095,0.00,VWS V14.00,2013-04-17 11:02:00,
2013-04-17 07:07:00,50.1,42.5,30.14,North,355,1.0,10.0,75,0.00,,OVC095,0.00,VWS V14.00,2013-04-17 11:07:00,
2013-04-17 07:12:00,50.3,42.3,30.15,North,351,2.0,10.0,74,0.00,,OVC095,0.00,VWS V14.00,2013-04-17 11:12:00,
2013-04-17 07:17:00,50.3,42.3,30.15,NNW,343,6.0,10.0,74,0.00,,OVC095,0.00,VWS V14.00,2013-04-17 11:17:00,
2013-04-17 07:22:00,50.3,42.3,30.15,NNW,344,7.0,10.0,74,0.00,,OVC095,0.00,VWS V14.00,2013-04-17 11:22:00,
2013-04-17 07:27:00,50.4,42.1,30.15,NW,308,3.0,10.0,73,0.00,,OVC095,0.00,VWS V14.00,2013-04-17 11:27:00,
2013-04-17 07:32:00,50.4,42.1,30.16,NE,50,8.0,8.0,73,0.00,,OVC095,0.00,VWS V14.00,2013-04-17 11:32:00,
2013-04-17 07:37:00,50.6,42.3,30.16,NNW,337,6.0,8.0,73,0.00,,OVC095,0.00,VWS V14.00,2013-04-17 11:37:00,
2013-04-17 07:42:00,50.6,41.9,30.17,NNW,343,5.0,12.0,72,0.00,,OVC095,0.00,VWS V14.00,2013-04-17 11:42:00,
2013-04-17 07:47:00,50.7,42.0,30.16,NNW,343,2.0,12.0,72,0.00,,OVC095,0.00,VWS V14.00,2013-04-17 11:47:00,
2013-04-17 07:52:00,50.9,41.8,30.17,North,0,1.0,13.0,71,0.00,,OVC095,0.00,VWS V14.00,2013-04-17 11:52:00,
2013-04-17 07:57:00,50.9,41.8,30.16,NW,320,6.0,14.0,71,0.00,,OVC095,0.00,VWS V14.00,2013-04-17 11:57:00,
2013-04-17 08:02:00,51.0,41.6,30.16,North,0,3.0,14.0,70,0.00,,CLR,0.00,VWS V14.00,2013-04-17 12:02:00,
2013-04-17 08:07:00,51.2,41.4,30.17,NNW,335,6.0,14.0,69,0.00,,CLR,0.00,VWS V14.00,2013-04-17 12:07:00,
2013-04-17 08:12:00,51.3,41.5,30.17,North,2,1.0,14.0,69,0.00,,CLR,0.00,VWS V14.00,2013-04-17 12:12:00,
2013-04-17 08:17:00,51.6,41.0,30.18,North,3,3.0,14.0,67,0.00,,CLR,0.00,VWS V14.00,2013-04-17 12:17:00,
2013-04-17 08:22:00,51.8,41.2,30.18,NNE,23,1.0,14.0,67,0.00,,CLR,0.00,VWS V14.00,2013-04-17 12:22:00,
2013-04-17 08:27:00,52.1,41.5,30.17,NNW,340,2.0,14.0,67,0.00,,CLR,0.00,VWS V14.00,2013-04-17 12:27:00,
2013-04-17 08:32:00,52.3,41.3,30.17,NW,323,1.0,11.0,66,0.00,,CLR,0.00,VWS V14.00,2013-04-17 12:32:00,
2013-04-17 08:37:00,52.5,40.7,30.18,NNE,30,6.0,16.0,64,0.00,,CLR,0.00,VWS V14.00,2013-04-17 12:37:00,
2013-04-17 08:42:00,52.6,40.8,30.18,NE,51,4.0,16.0,64,0.00,,CLR,0.00,VWS V14.00,2013-04-17 12:42:00,
2013-04-17 08:47:00,52.8,41.4,30.18,NNW,327,3.0,16.0,65,0.00,,CLR,0.00,VWS V14.00,2013-04-17 12:47:00,
2013-04-17 08:52:00,52.9,41.1,30.17,NNW,348,4.0,16.0,64,0.00,,CLR,0.00,VWS V14.00,2013-04-17 12:52:00,
2013-04-17 08:57:00,53.2,41.0,30.18,ENE,66,5.0,16.0,63,0.00,,CLR,0.00,VWS V14.00,2013-04-17 12:57:00,
2013-04-17 09:02:00,53.2,41.3,30.18,North,356,2.0,8.0,64,0.00,,FEW095,0.00,VWS V14.00,2013-04-17 13:02:00,
2013-04-17 09:07:00,53.7,41.8,30.18,WNW,295,5.0,8.0,64,0.00,,FEW095,0.00,VWS V14.00,2013-04-17 13:07:00,
2013-04-17 09:12:00,54.2,41.9,30.18,North,1,3.0,8.0,63,0.00,,FEW095,0.00,VWS V14.00,2013-04-17 13:12:00,
2013-04-17 09:17:00,54.4,42.1,30.18,NNE,22,4.0,8.0,63,0.00,,FEW095,0.00,VWS V14.00,2013-04-17 13:17:00,
2013-04-17 09:22:00,54.7,42.0,30.18,NNW,341,4.0,9.0,62,0.00,,FEW095,0.00,VWS V14.00,2013-04-17 13:22:00,
2013-04-17 09:27:00,55.0,41.8,30.19,NNE,13,4.0,9.0,61,0.00,,FEW095,0.00,VWS V14.00,2013-04-17 13:27:00,
2013-04-17 09:32:00,55.1,41.9,30.19,WNW,290,10.0,10.0,61,0.00,,FEW095,0.00,VWS V14.00,2013-04-17 13:32:00,
2013-04-17 09:37:00,55.0,41.4,30.19,NW,316,2.0,10.0,60,0.00,,FEW095,0.00,VWS V14.00,2013-04-17 13:37:00,
2013-04-17 09:42:00,55.0,41.4,30.19,NW,315,5.0,10.0,60,0.00,,FEW095,0.00,VWS V14.00,2013-04-17 13:42:00,
2013-04-17 09:47:00,55.1,41.0,30.19,South,184,1.0,10.0,59,0.00,,FEW095,0.00,VWS V14.00,2013-04-17 13:47:00,
2013-04-17 09:52:00,55.4,41.3,30.19,East,83,2.0,10.0,59,0.00,,FEW095,0.00,VWS V14.00,2013-04-17 13:52:00,
2013-04-17 09:57:00,56.3,41.3,30.19,NE,37,3.0,10.0,57,0.00,,FEW095,0.00,VWS V14.00,2013-04-17 13:57:00,
2013-04-17 10:02:00,56.3,40.4,30.20,North,7,4.0,9.0,55,0.00,,FEW080,0.00,VWS V14.00,2013-04-17 14:02:00,
2013-04-17 10:07:00,56.6,41.1,30.19,NW,312,1.0,9.0,56,0.00,,FEW080,0.00,VWS V14.00,2013-04-17 14:07:00,
2013-04-17 10:12:00,56.8,39.9,30.19,NNE,25,1.0,9.0,53,0.00,,FEW080,0.00,VWS V14.00,2013-04-17 14:12:00,
2013-04-17 10:17:00,56.9,40.4,30.19,NNE,23,4.0,9.0,54,0.00,,FEW080,0.00,VWS V14.00,2013-04-17 14:17:00,
2013-04-17 10:22:00,57.5,40.5,30.19,North,358,4.0,9.0,53,0.00,,FEW080,0.00,VWS V14.00,2013-04-17 14:22:00,
2013-04-17 10:27:00,57.4,39.9,30.19,North,357,1.0,10.0,52,0.00,,FEW080,0.00,VWS V14.00,2013-04-17 14:27:00,
2013-04-17 10:32:00,57.1,39.7,30.19,NNW,347,0.0,7.0,52,0.00,,FEW080,0.00,VWS V14.00,2013-04-17 14:32:00,
2013-04-17 10:37:00,57.2,39.8,30.19,North,350,3.0,15.0,52,0.00,,FEW080,0.00,VWS V14.00,2013-04-17 14:37:00,
2013-04-17 10:42:00,57.5,38.5,30.19,NNW,338,4.0,15.0,49,0.00,,FEW080,0.00,VWS V14.00,2013-04-17 14:42:00,
2013-04-17 10:47:00,57.1,38.1,30.20,ENE,74,4.0,15.0,49,0.00,,FEW080,0.00,VWS V14.00,2013-04-17 14:47:00,
2013-04-17 10:52:00,57.2,37.7,30.19,NNW,343,3.0,15.0,48,0.00,,FEW080,0.00,VWS V14.00,2013-04-17 14:52:00,
2013-04-17 10:57:00,58.1,39.1,30.19,NNW,334,2.0,15.0,49,0.00,,FEW080,0.00,VWS V14.00,2013-04-17 14:57:00,
2013-04-17 11:02:00,59.5,39.8,30.19,NNW,340,6.0,11.0,48,0.00,,FEW050,0.00,VWS V14.00,2013-04-17 15:02:00,
2013-04-17 11:07:00,59.6,39.4,30.19,NE,42,2.0,11.0,47,0.00,,FEW050,0.00,VWS V14.00,2013-04-17 15:07:00,
2013-04-17 11:12:00,59.9,39.1,30.19,WNW,294,5.0,11.0,46,0.00,,FEW050,0.00,VWS V14.00,2013-04-17 15:12:00,
2013-04-17 11:17:00,59.5,38.2,30.19,NW,304,1.0,11.0,45,0.00,,FEW050,0.00,VWS V14.00,2013-04-17 15:17:00,
2013-04-17 11:22:00,59.6,37.7,30.19,North,0,3.0,12.0,44,0.00,,FEW050,0.00,VWS V14.00,2013-04-17 15:22:00,
2013-04-17 11:27:00,59.0,37.1,30.20,NW,319,7.0,12.0,44,0.00,,FEW050,0.00,VWS V14.00,2013-04-17 15:27:00,
2013-04-17 11:32:00,59.2,37.3,30.19,SW,236,1.0,12.0,44,0.00,,FEW050,0.00,VWS V14.00,2013-04-17 15:32:00,
2013-04-17 11:37:00,59.5,37.6,30.19,North,354,4.0,12.0,44,0.00,,FEW050,0.00,VWS V14.00,2013-04-17 15:37:00,
2013-04-17 11:42:00,59.0,37.1,30.20,North,349,3.0,12.0,44,0.00,,FEW050,0.00,VWS V14.00,2013-04-17 15:42:00,
2013-04-17 11:47:00,59.0,37.1,30.19,NE,44,2.0,12.0,44,0.00,,FEW050,0.00,VWS V14.00,2013-04-17 15:47:00,
2013-04-17 11:52:00,59.9,38.0,30.19,North,1,4.0,12.0,44,0.00,,FEW050,0.00,VWS V14.00,2013-04-17 15:52:00,
2013-04-17 11:57:00,60.1,38.1,30.19,NE,55,2.0,12.0,44,0.00,,FEW050,0.00,VWS V14.00,2013-04-17 15:57:00,
2013-04-17 12:02:00,60.9,37.1,30.19,NE,35,4.0,7.0,41,0.00,,FEW050,0.00,VWS V14.00,2013-04-17 16:02:00,
2013-04-17 12:07:00,60.9,37.7,30.19,NW,318,6.0,10.0,42,0.00,,FEW050,0.00,VWS V14.00,2013-04-17 16:07:00,
2013-04-17 12:12:00,60.7,36.9,30.18,NNE,14,6.0,10.0,41,0.00,,FEW050,0.00,VWS V14.00,2013-04-17 16:12:00,
2013-04-17 12:17:00,61.0,38.4,30.19,North,0,2.0,10.0,43,0.00,,FEW050,0.00,VWS V14.00,2013-04-17 16:17:00,
2013-04-17 12:22:00,62.1,38.8,30.18,North,352,3.0,10.0,42,0.00,,FEW050,0.00,VWS V14.00,2013-04-17 16:22:00,
2013-04-17 12:27:00,62.6,37.3,30.18,SSW,211,1.0,10.0,39,0.00,,FEW050,0.00,VWS V14.00,2013-04-17 16:27:00,
2013-04-17 12:32:00,61.8,36.6,30.18,WNW,290,5.0,7.0,39,0.00,,FEW050,0.00,VWS V14.00,2013-04-17 16:32:00,
2013-04-17 12:37:00,62.3,37.7,30.18,NNW,341,6.0,10.0,40,0.00,,FEW050,0.00,VWS V14.00,2013-04-17 16:37:00,
2013-04-17 12:42:00,62.1,38.1,30.18,NW,324,2.0,10.0,41,0.00,,FEW050,0.00,VWS V14.00,2013-04-17 16:42:00,
2013-04-17 12:47:00,62.6,37.3,30.18,North,359,3.0,10.0,39,0.00,,FEW050,0.00,VWS V14.00,2013-04-17 16:47:00,
2013-04-17 12:52:00,62.9,36.9,30.17,NW,307,5.0,10.0,38,0.00,,FEW050,0.00,VWS V14.00,2013-04-17 16:52:00,
2013-04-17 12:57:00,62.6,37.3,30.17,NNE,32,7.0,12.0,39,0.00,,FEW050,0.00,VWS V14.00,2013-04-17 16:57:00,
2013-04-17 13:02:00,63.4,37.4,30.18,NNE,21,6.0,7.0,38,0.00,,CLR,0.00,VWS V14.00,2013-04-17 17:02:00,
2013-04-17 13:07:00,63.5,36.8,30.17,West,263,2.0,7.0,37,0.00,,CLR,0.00,VWS V14.00,2013-04-17 17:07:00,
2013-04-17 13:12:00,63.1,36.4,30.17,NNE,32,2.0,8.0,37,0.00,,CLR,0.00,VWS V14.00,2013-04-17 17:12:00,
2013-04-17 13:17:00,63.1,36.4,30.17,NNW,338,4.0,10.0,37,0.00,,CLR,0.00,VWS V14.00,2013-04-17 17:17:00,
2013-04-17 13:22:00,63.4,36.7,30.17,NNW,334,7.0,13.0,37,0.00,,CLR,0.00,VWS V14.00,2013-04-17 17:22:00,
2013-04-17 13:27:00,63.7,35.6,30.17,NNE,31,5.0,13.0,35,0.00,,CLR,0.00,VWS V14.00,2013-04-17 17:27:00,
2013-04-17 13:32:00,63.1,36.4,30.17,NNW,329,5.0,8.0,37,0.00,,CLR,0.00,VWS V14.00,2013-04-17 17:32:00,
2013-04-17 13:37:00,63.7,36.3,30.17,NNE,32,3.0,8.0,36,0.00,,CLR,0.00,VWS V14.00,2013-04-17 17:37:00,
2013-04-17 13:42:00,64.7,36.4,30.18,NW,307,3.0,10.0,35,0.00,,CLR,0.00,VWS V14.00,2013-04-17 17:42:00,
2013-04-17 13:47:00,64.9,37.3,30.17,NNE,15,2.0,10.0,36,0.00,,CLR,0.00,VWS V14.00,2013-04-17 17:47:00,
2013-04-17 13:52:00,64.7,36.4,30.17,North,357,3.0,10.0,35,0.00,,CLR,0.00,VWS V14.00,2013-04-17 17:52:00,
2013-04-17 13:57:00,64.7,36.4,30.17,NNW,345,9.0,10.0,35,0.00,,CLR,0.00,VWS V14.00,2013-04-17 17:57:00,
2013-04-17 14:02:00,64.7,35.7,30.17,NNW,335,1.0,11.0,34,0.00,,CLR,0.00,VWS V14.00,2013-04-17 18:02:00,
2013-04-17 14:07:00,64.4,36.2,30.17,NNE,27,2.0,11.0,35,0.00,,CLR,0.00,VWS V14.00,2013-04-17 18:07:00,
2013-04-17 14:12:00,64.7,36.4,30.17,NNE,32,2.0,11.0,35,0.00,,CLR,0.00,VWS V14.00,2013-04-17 18:12:00,
2013-04-17 14:17:00,65.3,36.2,30.16,NNW,344,2.0,11.0,34,0.00,,CLR,0.00,VWS V14.00,2013-04-17 18:17:00,
2013-04-17 14:22:00,65.8,37.4,30.17,WNW,297,4.0,11.0,35,0.00,,CLR,0.00,VWS V14.00,2013-04-17 18:22:00,
2013-04-17 14:27:00,65.5,35.7,30.17,NNW,330,5.0,11.0,33,0.00,,CLR,0.00,VWS V14.00,2013-04-17 18:27:00,
2013-04-17 14:32:00,65.5,36.4,30.17,West,267,3.0,6.0,34,0.00,,CLR,0.00,VWS V14.00,2013-04-17 18:32:00,
2013-04-17 14:37:00,66.0,36.8,30.17,NNW,338,4.0,6.0,34,0.00,,CLR,0.00,VWS V14.00,2013-04-17 18:37:00,
2013-04-17 14:42:00,66.1,36.9,30.17,NNE,13,2.0,8.0,34,0.00,,CLR,0.00,VWS V14.00,2013-04-17 18:42:00,
2013-04-17 14:47:00,65.8,35.9,30.17,NNW,347,4.0,8.0,33,0.00,,CLR,0.00,VWS V14.00,2013-04-17 18:47:00,
2013-04-17 14:52:00,65.8,37.4,30.17,North,353,4.0,10.0,35,0.00,,CLR,0.00,VWS V14.00,2013-04-17 18:52:00,
2013-04-17 14:57:00,65.5,35.7,30.18,NE,46,0.0,10.0,33,0.00,,CLR,0.00,VWS V14.00,2013-04-17 18:57:00,
2013-04-17 15:02:00,65.7,35.8,30.18,NNE,22,2.0,7.0,33,0.00,,CLR,0.00,VWS V14.00,2013-04-17 19:02:00,
2013-04-17 15:07:00,65.7,35.8,30.18,West,274,3.0,9.0,33,0.00,,CLR,0.00,VWS V14.00,2013-04-17 19:07:00,
2013-04-17 15:12:00,65.5,36.4,30.18,East,84,3.0,9.0,34,0.00,,CLR,0.00,VWS V14.00,2013-04-17 19:12:00,
2013-04-17 15:17:00,65.7,36.6,30.17,North,0,0.0,9.0,34,0.00,,CLR,0.00,VWS V14.00,2013-04-17 19:17:00,
2013-04-17 15:22:00,65.8,35.9,30.17,NNE,24,6.0,9.0,33,0.00,,CLR,0.00,VWS V14.00,2013-04-17 19:22:00,
2013-04-17 15:27:00,65.8,35.9,30.18,North,353,2.0,9.0,33,0.00,,CLR,0.00,VWS V14.00,2013-04-17 19:27:00,
2013-04-17 15:32:00,65.3,35.5,30.18,North,349,1.0,8.0,33,0.00,,CLR,0.00,VWS V14.00,2013-04-17 19:32:00,
2013-04-17 15:37:00,66.3,37.1,30.18,NW,321,6.0,8.0,34,0.00,,CLR,0.00,VWS V14.00,2013-04-17 19:37:00,
2013-04-17 15:42:00,66.6,36.6,30.18,NW,326,5.0,10.0,33,0.00,,CLR,0.00,VWS V14.00,2013-04-17 19:42:00,
2013-04-17 15:47:00,66.6,36.6,30.18,NE,36,3.0,11.0,33,0.00,,CLR,0.00,VWS V14.00,2013-04-17 19:47:00,
2013-04-17 15:52:00,66.0,36.1,30.18,North,354,1.0,12.0,33,0.00,,CLR,0.00,VWS V14.00,2013-04-17 19:52:00,
2013-04-17 15:57:00,66.1,36.2,30.18,NNE,19,3.0,12.0,33,0.00,,CLR,0.00,VWS V14.00,2013-04-17 19:57:00,
2013-04-17 16:02:00,66.0,36.1,30.18,NW,317,1.0,9.0,33,0.00,,CLR,0.00,VWS V14.00,2013-04-17 20:02:00,
2013-04-17 16:07:00,66.3,36.4,30.18,NE,56,7.0,9.0,33,0.00,,CLR,0.00,VWS V14.00,2013-04-17 20:07:00,
2013-04-17 16:12:00,66.1,36.2,30.18,West,273,6.0,9.0,33,0.00,,CLR,0.00,VWS V14.00,2013-04-17 20:12:00,
2013-04-17 16:17:00,66.1,36.2,30.18,NNW,328,5.0,9.0,33,0.00,,CLR,0.00,VWS V14.00,2013-04-17 20:17:00,
2013-04-17 16:22:00,65.7,35.1,30.18,NW,317,6.0,12.0,32,0.00,,CLR,0.00,VWS V14.00,2013-04-17 20:22:00,
2013-04-17 16:27:00,65.2,35.4,30.18,WNW,288,1.0,12.0,33,0.00,,CLR,0.00,VWS V14.00,2013-04-17 20:27:00,
2013-04-17 16:32:00,65.3,35.5,30.19,North,357,1.0,10.0,33,0.00,,CLR,0.00,VWS V14.00,2013-04-17 20:32:00,
2013-04-17 16:37:00,65.5,35.7,30.19,NNE,25,3.0,10.0,33,0.00,,CLR,0.00,VWS V14.00,2013-04-17 20:37:00,
2013-04-17 16:42:00,65.3,34.7,30.19,North,353,2.0,10.0,32,0.00,,CLR,0.00,VWS V14.00,2013-04-17 20:42:00,
2013-04-17 16:47:00,65.2,35.4,30.19,NNW,339,1.0,10.0,33,0.00,,CLR,0.00,VWS V14.00,2013-04-17 20:47:00,
2013-04-17 16:52:00,65.5,34.9,30.19,North,0,2.0,10.0,32,0.00,,CLR,0.00,VWS V14.00,2013-04-17 20:52:00,
2013-04-17 16:57:00,66.1,36.2,30.19,ENE,62,4.0,10.0,33,0.00,,CLR,0.00,VWS V14.00,2013-04-17 20:57:00,
2013-04-17 17:02:00,65.7,35.1,30.20,NE,42,1.0,6.0,32,0.00,,CLR,0.00,VWS V14.00,2013-04-17 21:02:00,
2013-04-17 17:07:00,65.3,33.9,30.20,ENE,58,3.0,7.0,31,0.00,,CLR,0.00,VWS V14.00,2013-04-17 21:07:00,
2013-04-17 17:12:00,65.2,35.4,30.20,NNE,27,3.0,8.0,33,0.00,,CLR,0.00,VWS V14.00,2013-04-17 21:12:00,
2013-04-17 17:17:00,65.2,35.4,30.20,NNW,332,3.0,11.0,33,0.00,,CLR,0.00,VWS V14.00,2013-04-17 21:17:00,
2013-04-17 17:22:00,64.9,34.4,30.21,NNE,28,4.0,11.0,32,0.00,,CLR,0.00,VWS V14.00,2013-04-17 21:22:00,
2013-04-17 17:27:00,64.5,34.8,30.20,NE,45,2.0,11.0,33,0.00,,CLR,0.00,VWS V14.00,2013-04-17 21:27:00,
2013-04-17 17:32:00,64.5,34.8,30.21,NE,51,2.0,8.0,33,0.00,,CLR,0.00,VWS V14.00,2013-04-17 21:32:00,
2013-04-17 17:37:00,64.7,35.0,30.21,NE,51,2.0,8.0,33,0.00,,CLR,0.00,VWS V14.00,2013-04-17 21:37:00,
2013-04-17 17:42:00,64.9,35.9,30.21,NNW,345,1.0,8.0,34,0.00,,CLR,0.00,VWS V14.00,2013-04-17 21:42:00,
2013-04-17 17:47:00,64.9,35.1,30.21,NNE,20,2.0,9.0,33,0.00,,CLR,0.00,VWS V14.00,2013-04-17 21:47:00,
2013-04-17 17:52:00,64.4,34.7,30.21,NNE,26,5.0,9.0,33,0.00,,CLR,0.00,VWS V14.00,2013-04-17 21:52:00,
2013-04-17 17:57:00,63.7,34.1,30.22,NE,41,6.0,10.0,33,0.00,,CLR,0.00,VWS V14.00,2013-04-17 21:57:00,
2013-04-17 18:02:00,63.1,33.6,30.22,NNE,21,3.0,12.0,33,0.00,,CLR,0.00,VWS V14.00,2013-04-17 22:02:00,
2013-04-17 18:07:00,62.8,33.3,30.22,NNE,18,3.0,12.0,33,0.00,,CLR,0.00,VWS V14.00,2013-04-17 22:07:00,
2013-04-17 18:12:00,62.6,33.9,30.22,NNE,18,2.0,12.0,34,0.00,,CLR,0.00,VWS V14.00,2013-04-17 22:12:00,
2013-04-17 18:17:00,62.3,33.6,30.23,NNE,12,2.0,12.0,34,0.00,,CLR,0.00,VWS V14.00,2013-04-17 22:17:00,
2013-04-17 18:22:00,61.8,33.9,30.23,NE,35,4.0,12.0,35,0.00,,CLR,0.00,VWS V14.00,2013-04-17 22:22:00,
2013-04-17 18:27:00,61.5,32.9,30.24,NNW,332,2.0,12.0,34,0.00,,CLR,0.00,VWS V14.00,2013-04-17 22:27:00,
2013-04-17 18:32:00,61.4,33.5,30.23,North,0,1.0,8.0,35,0.00,,CLR,0.00,VWS V14.00,2013-04-17 22:32:00,
2013-04-17 18:37:00,61.2,33.3,30.24,NNE,26,3.0,8.0,35,0.00,,CLR,0.00,VWS V14.00,2013-04-17 22:37:00,
2013-04-17 18:42:00,60.9,33.1,30.24,North,0,2.0,8.0,35,0.00,,CLR,0.00,VWS V14.00,2013-04-17 22:42:00,
2013-04-17 18:47:00,60.6,32.8,30.24,North,1,4.0,8.0,35,0.00,,CLR,0.00,VWS V14.00,2013-04-17 22:47:00,
2013-04-17 18:52:00,60.4,33.3,30.24,NE,42,5.0,8.0,36,0.00,,CLR,0.00,VWS V14.00,2013-04-17 22:52:00,
2013-04-17 18:57:00,60.1,33.8,30.25,NE,43,1.0,8.0,37,0.00,,CLR,0.00,VWS V14.00,2013-04-17 22:57:00,
2013-04-17 19:02:00,59.8,34.2,30.25,NE,42,2.0,4.0,38,0.00,,SCT300,0.00,VWS V14.00,2013-04-17 23:02:00,
2013-04-17 19:07:00,59.6,33.3,30.25,NE,42,2.0,4.0,37,0.00,,SCT300,0.00,VWS V14.00,2013-04-17 23:07:00,
2013-04-17 19:12:00,59.3,33.7,30.25,NE,41,2.0,4.0,38,0.00,,SCT300,0.00,VWS V14.00,2013-04-17 23:12:00,
2013-04-17 19:17:00,59.0,33.5,30.26,North,351,1.0,5.0,38,0.00,,SCT300,0.00,VWS V14.00,2013-04-17 23:17:00,
2013-04-17 19:22:00,58.9,33.4,30.25,North,351,1.0,5.0,38,0.00,,SCT300,0.00,VWS V14.00,2013-04-17 23:22:00,
2013-04-17 19:27:00,58.6,33.1,30.26,NNW,335,5.0,6.0,38,0.00,,SCT300,0.00,VWS V14.00,2013-04-17 23:27:00,
2013-04-17 19:32:00,58.3,32.2,30.26,North,359,0.0,5.0,37,0.00,,SCT300,0.00,VWS V14.00,2013-04-17 23:32:00,
2013-04-17 19:37:00,58.1,33.3,30.26,North,358,1.0,5.0,39,0.00,,SCT300,0.00,VWS V14.00,2013-04-17 23:37:00,
2013-04-17 19:42:00,57.8,33.0,30.26,North,359,2.0,5.0,39,0.00,,SCT300,0.00,VWS V14.00,2013-04-17 23:42:00,
2013-04-17 19:47:00,57.5,33.4,30.27,North,359,1.0,5.0,40,0.00,,SCT300,0.00,VWS V14.00,2013-04-17 23:47:00,
2013-04-17 19:52:00,57.2,32.5,30.27,North,359,1.0,5.0,39,0.00,,SCT300,0.00,VWS V14.00,2013-04-17 23:52:00,
2013-04-17 19:57:00,56.9,32.2,30.27,North,359,1.0,5.0,39,0.00,,SCT300,0.00,VWS V14.00,2013-04-17 23:57:00,
2013-04-17 20:02:00,56.6,32.6,30.27,North,359,0.0,3.0,40,0.00,,CLR,0.00,VWS V14.00,2013-04-18 00:02:00,
2013-04-17 20:07:00,56.3,32.9,30.28,North,359,1.0,3.0,41,0.00,,CLR,0.00,VWS V14.00,2013-04-18 00:07:00,
2013-04-17 20:12:00,55.7,32.4,30.28,North,359,1.0,3.0,41,0.00,,CLR,0.00,VWS V14.00,2013-04-18 00:12:00,
2013-04-17 20:17:00,55.4,33.3,30.29,North,359,1.0,3.0,43,0.00,,CLR,0.00,VWS V14.00,2013-04-18 00:17:00,
2013-04-17 20:22:00,55.1,33.6,30.29,North,359,0.0,3.0,44,0.00,,CLR,0.00,VWS V14.00,2013-04-18 00:22:00,
2013-04-17 20:27:00,54.8,32.8,30.29,North,359,1.0,3.0,43,0.00,,CLR,0.00,VWS V14.00,2013-04-18 00:27:00,
2013-04-17 20:32:00,54.7,32.7,30.29,North,359,1.0,4.0,43,0.00,,CLR,0.00,VWS V14.00,2013-04-18 00:32:00,
2013-04-17 20:37:00,54.4,33.0,30.30,North,359,0.0,4.0,44,0.00,,CLR,0.00,VWS V14.00,2013-04-18 00:37:00,
2013-04-17 20:42:00,54.1,32.7,30.30,North,359,1.0,4.0,44,0.00,,CLR,0.00,VWS V14.00,2013-04-18 00:42:00,
2013-04-17 20:47:00,53.8,33.0,30.29,North,359,2.0,4.0,45,0.00,,CLR,0.00,VWS V14.00,2013-04-18 00:47:00,
2013-04-17 20:52:00,53.5,32.7,30.30,North,359,0.0,4.0,45,0.00,,CLR,0.00,VWS V14.00,2013-04-18 00:52:00,
2013-04-17 20:57:00,53.2,33.0,30.30,North,359,0.0,4.0,46,0.00,,CLR,0.00,VWS V14.00,2013-04-18 00:57:00,
2013-04-17 21:02:00,52.8,32.6,30.30,North,359,0.0,2.0,46,0.00,,SCT300,0.00,VWS V14.00,2013-04-18 01:02:00,
2013-04-17 21:07:00,52.5,32.3,30.30,North,359,0.0,3.0,46,0.00,,SCT300,0.00,VWS V14.00,2013-04-18 01:07:00,
2013-04-17 21:12:00,52.4,32.8,30.30,North,359,2.0,3.0,47,0.00,,SCT300,0.00,VWS V14.00,2013-04-18 01:12:00,
2013-04-17 21:17:00,52.3,32.7,30.30,North,359,0.0,4.0,47,0.00,,SCT300,0.00,VWS V14.00,2013-04-18 01:17:00,
2013-04-17 21:22:00,52.4,32.8,30.30,North,359,1.0,4.0,47,0.00,,SCT300,0.00,VWS V14.00,2013-04-18 01:22:00,
2013-04-17 21:27:00,52.2,32.6,30.30,North,359,0.0,4.0,47,0.00,,SCT300,0.00,VWS V14.00,2013-04-18 01:27:00,
2013-04-17 21:32:00,52.1,32.5,30.31,North,359,1.0,2.0,47,0.00,,SCT300,0.00,VWS V14.00,2013-04-18 01:32:00,
2013-04-17 21:37:00,51.8,33.3,30.31,North,359,1.0,3.0,49,0.00,,SCT300,0.00,VWS V14.00,2013-04-18 01:37:00,
2013-04-17 21:42:00,51.6,32.6,30.31,North,359,1.0,3.0,48,0.00,,SCT300,0.00,VWS V14.00,2013-04-18 01:42:00,
2013-04-17 21:47:00,51.5,33.0,30.31,North,359,1.0,4.0,49,0.00,,SCT300,0.00,VWS V14.00,2013-04-18 01:47:00,
2013-04-17 21:52:00,51.2,32.7,30.32,North,359,1.0,4.0,49,0.00,,SCT300,0.00,VWS V14.00,2013-04-18 01:52:00,
2013-04-17 21:57:00,51.0,32.5,30.32,North,359,1.0,4.0,49,0.00,,SCT300,0.00,VWS V14.00,2013-04-18 01:57:00,
2013-04-17 22:02:00,50.9,32.9,30.32,North,359,1.0,3.0,50,0.00,,SCT300,0.00,VWS V14.00,2013-04-18 02:02:00,
2013-04-17 22:07:00,50.6,32.7,30.32,North,359,1.0,4.0,50,0.00,,SCT300,0.00,VWS V14.00,2013-04-18 02:07:00,
2013-04-17 22:12:00,50.3,32.4,30.32,North,359,2.0,4.0,50,0.00,,SCT300,0.00,VWS V14.00,2013-04-18 02:12:00,
2013-04-17 22:17:00,50.1,33.2,30.32,North,359,4.0,4.0,52,0.00,,SCT300,0.00,VWS V14.00,2013-04-18 02:17:00,
2013-04-17 22:22:00,49.9,33.0,30.32,North,359,2.0,5.0,52,0.00,,SCT300,0.00,VWS V14.00,2013-04-18 02:22:00,
2013-04-17 22:27:00,49.9,32.0,30.32,North,0,2.0,5.0,50,0.00,,SCT300,0.00,VWS V14.00,2013-04-18 02:27:00,
2013-04-17 22:32:00,50.0,32.1,30.32,North,0,1.0,3.0,50,0.00,,SCT300,0.00,VWS V14.00,2013-04-18 02:32:00,
2013-04-17 22:37:00,49.9,32.0,30.32,North,0,0.0,3.0,50,0.00,,SCT300,0.00,VWS V14.00,2013-04-18 02:37:00,
2013-04-17 22:42:00,49.7,31.8,30.32,North,0,0.0,3.0,50,0.00,,SCT300,0.00,VWS V14.00,2013-04-18 02:42:00,
2013-04-17 22:47:00,49.6,31.7,30.32,North,0,0.0,3.0,50,0.00,,SCT300,0.00,VWS V14.00,2013-04-18 02:47:00,
2013-04-17 22:52:00,49.3,31.5,30.33,North,0,0.0,3.0,50,0.00,,SCT300,0.00,VWS V14.00,2013-04-18 02:52:00,
2013-04-17 22:57:00,48.8,31.0,30.32,North,0,0.0,3.0,50,0.00,,SCT300,0.00,VWS V14.00,2013-04-18 02:57:00,
2013-04-17 23:02:00,48.5,31.2,30.33,North,0,0.0,1.0,51,0.00,,SCT300,0.00,VWS V14.00,2013-04-18 03:02:00,
2013-04-17 23:07:00,48.1,31.3,30.33,North,0,0.0,1.0,52,0.00,,SCT300,0.00,VWS V14.00,2013-04-18 03:07:00,
2013-04-17 23:12:00,47.6,31.8,30.32,North,0,2.0,2.0,54,0.00,,SCT300,0.00,VWS V14.00,2013-04-18 03:12:00,
2013-04-17 23:17:00,47.1,31.3,30.32,North,0,1.0,2.0,54,0.00,,SCT300,0.00,VWS V14.00,2013-04-18 03:17:00,
2013-04-17 23:22:00,46.8,31.0,30.32,North,0,1.0,3.0,54,0.00,,SCT300,0.00,VWS V14.00,2013-04-18 03:22:00,
2013-04-17 23:27:00,46.6,30.4,30.32,North,0,0.0,3.0,53,0.00,,SCT300,0.00,VWS V14.00,2013-04-18 03:27:00,
2013-04-17 23:32:00,46.5,29.8,30.32,North,0,0.0,2.0,52,0.00,,SCT300,0.00,VWS V14.00,2013-04-18 03:32:00,
2013-04-17 23:37:00,46.3,31.0,30.32,North,0,1.0,2.0,55,0.00,,SCT300,0.00,VWS V14.00,2013-04-18 03:37:00,
2013-04-17 23:42:00,45.9,31.1,30.33,North,0,0.0,3.0,56,0.00,,SCT300,0.00,VWS V14.00,2013-04-18 03:42:00,
2013-04-17 23:47:00,45.6,29.9,30.33,North,0,0.0,3.0,54,0.00,,SCT300,0.00,VWS V14.00,2013-04-18 03:47:00,
2013-04-17 23:52:00,45.5,30.7,30.34,North,0,1.0,3.0,56,0.00,,SCT300,0.00,VWS V14.00,2013-04-18 03:52:00,
2013-04-17 23:57:00,45.5,29.8,30.34,North,0,0.0,3.0,54,0.00,,SCT300,0.00,VWS V14.00,2013-04-18 03:57:00,